一网星座-0613星 (ONEWEB-0613)

导读

ONEWEB-0613是英国OneWeb公司的低轨宽带通信卫星,于2023年3月26日由印度LVM3火箭发射,是OneWeb第一代全球宽带星座组网发射任务中的一颗卫星。卫星运行于1200公里近极轨道,重量约150公斤,使用Ku波段提供用户服务、Ka频段连接地面站,可支持高速卫星互联网接入,为企业、交通及政府等客户提供全球覆盖的宽带服务,助力OneWeb完成第一代星座部署,后续作为在轨备用卫星保障网络运行。

Basic Information
目录编号:
56071
目录名称:
ONEWEB-0613
国际标识:
2023-043AB
轨道中心:
EARTH
卫星名称:
一网星座-0613星
卫星全名:
一网星座-0613星 (ONEWEB-0613)
卫星状态:
在轨 (已飞行1266 天)
发射日期:
2023-03-26 UTC
国别 :
英国 (GB)
星等 :
--
This satellite is enrolled in the Space Conjunction Data Service (SCDS) and the current flight risk assessment level is: No High Risk
Orbit Information
数据来源 国际轨道数据 AOE轨道数据
星历时间 2026-09-11T20:05:51+0800
18小时前
查看轨道信息
2026-09-10T12:00:00+0800
2天前
查看轨道信息
半长轴 7579.913km 7579.919km
偏心率 0.0002032 0.0002165
轨道倾角 87.897° 87.898°
近地点辐角 78.104° 76.397°
升交点赤经 242.010° 242.277°
平近点角 282.032° 73.486°
近地点 1200.235km 1200.14km
远地点 1203.317km 1203.424km
周期 109.460分钟 109.460分钟
每日圈数 13.155473 13.155457
Detailed Information
平衡模式:
三轴稳定
覆盖范围:
全球
运营商:
一网卫星公司
运营商所在国:
英国
制造商(研发单位):
一网卫星公司
制造商所在国:
英国
使用方式:
暂无
Satellite Introduction
OneWeb卫星网络由648颗重约125公斤的微型卫星组成,运行在1200公里的轨道上。 每颗卫星都能够提供至少每秒8千兆位的吞吐量,以使用其高吞吐量的Ku频段有效载荷为家庭和移动平台提供互联网接入。该卫星仍在工作。
2D Orbit Map
3D Orbit Map
Orbit Altitude Analysis Chart
Orbit Inclination Analysis Chart
Orbit Comprehensive Analysis Chart
View Comprehensive Chart
Conjunction Data List
Event ID Objects TCA Miss Dist (km) Collision Risk Probability Collision Risk Index (CRI) Action
CDM_260907-215401-070605-607127
2026-09-07T
21:54:45+0000
0.138 km
中距离
1.009148E-3 极高风险 0.95
CDM_260914-015003-830505-607121
2026-09-14T
01:50:24+0000
1.810 km
极远距离
2.688308E-6 低风险 0.44
CDM_260907-184502-129605-607126
2026-09-07T
18:45:38+0000
2.664 km
极远距离
1.55757E-6 低风险 0.39
Miss Distance Evolution Trend with All Objects
Collision Probability Evolution Trend with All Objects